Regional Weather Roundup
Issued by NWS

Home | Current Version | Previous Version | Graphics & Text | Print | Product List | Glossary Off
Versions: 1 2 3 4 5 6 7 8 9 10 11 12 13 14 15 16 17 18 19 20 21 22 23 24 25 26 27 28 29 30 31 32 33 34 35 36 37 38 39 40 41 42 43 44 45 46 47 48 49 50

000
ASUS43 KMKX 171220
RWRWI

WISCONSIN REGIONAL WEATHER ROUNDUP
NATIONAL WEATHER SERVICE MILWAUKEE/SULLIVAN WI
600 AM CST SAT FEB 17 2018

NOTE: "FAIR" INDICATES FEW OR NO CLOUDS BELOW 12,000 FEET WITH NO
SIGNIFICANT WEATHER AND/OR OBSTRUCTIONS TO VISIBILITY.

WIZ001-002-006>008-014>016-023>028-171300-
NORTHWEST WISCONSIN

CITY           SKY/WX    TMP DP  RH WIND       PRES   REMARKS
SUPERIOR ARPT  FAIR      18  11  73 SW10      29.81S WCI   6
6HR MIN TEMP:  17; 6HR MAX TEMP:  18;

ASHLAND        CLOUDY    19  11  70 SW14      29.82S WCI   6
6HR MIN TEMP:  15; 6HR MAX TEMP:  19; 6HR PCP: TRACE;

HAYWARD        FLURRIES  17   9  70 SW8       29.82F WCI   7
6HR MIN TEMP:  12; 6HR MAX TEMP:  18; 6HR PCP: TRACE;

SIREN          FAIR      21  12  68 SW9       29.84S WCI  11
6HR MIN TEMP:  15; 6HR MAX TEMP:  21;

CUMBERLAND     FAIR      18   9  68 S9        29.84F WCI   6
RICE LAKE      FAIR      17   9  72 S5        29.87F WCI  10
6HR MIN TEMP:  10; 6HR MAX TEMP:  17;

CHETEK         MOCLDY    16   8  71 S3        29.87F
6HR MIN TEMP:  10; 6HR MAX TEMP:  17;

LADYSMITH      FAIR      13   6  73 S3        29.88F
6HR MIN TEMP:   8; 6HR MAX TEMP:  15;

EAU CLAIRE     MOCLDY    16   7  67 S5        29.90S WCI   9
6HR MIN TEMP:   5; 6HR MAX TEMP:  16;

MENOMONIE      CLOUDY    22  10  61 S7        29.90S WCI  13
6HR MIN TEMP:  14; 6HR MAX TEMP:  21;

NEW RICHMOND   CLOUDY    21  11  67 S9        29.87S WCI  10
6HR MIN TEMP:  13; 6HR MAX TEMP:  21;

OSCEOLA        CLOUDY    20  12  72 S7        29.89F WCI  11
6HR MIN TEMP:  14; 6HR MAX TEMP:  20;

$$

WIZ003>005-009-010-017-018-171300-
NORTH CENTRAL WISCONSIN

CITY           SKY/WX    TMP DP  RH WIND       PRES   REMARKS
MANITOWISH WTR FAIR      13   5  72 SW7       29.80F WCI   2
6HR MIN TEMP:   8; 6HR MAX TEMP:  13;

ARBOR VITAE    FAIR      14   6  71 S7        29.81F WCI   4
6HR MIN TEMP:   5; 6HR MAX TEMP:  15;

WOODRUFF       FAIR      14   6  71 S7        29.81F WCI   4
6HR MIN TEMP:   5; 6HR MAX TEMP:  15;

RHINELANDER    FAIR      12   4  70 SW13      29.84F WCI  -3
6HR MIN TEMP:   7; 6HR MAX TEMP:  12;

EAGLE RIVER    FAIR      13   3  65 SW7       29.82F WCI   2
6HR MIN TEMP:   6; 6HR MAX TEMP:  13;

LAND O LAKES   FAIR      13   4  68 SW5       29.81F WCI   5
6HR MIN TEMP:   6; 6HR MAX TEMP:  13;

PHILLIPS       FAIR      13   6  72 S6        29.83F WCI   4
6HR MIN TEMP:   8; 6HR MAX TEMP:  14;

TOMAHAWK       FAIR      10   2  72 CALM      29.86F
6HR MIN TEMP:   6; 6HR MAX TEMP:  10;

MEDFORD        FAIR      12   4  70 S8        29.87F WCI   0
6HR MIN TEMP:   5; 6HR MAX TEMP:  13;

MERRILL        FAIR      14   4  65 S5        29.89F WCI   6
6HR MIN TEMP:   8; 6HR MAX TEMP:  14;

$$

WIZ029-030-035-036-043>047-171300-
CENTRAL WISCONSIN

CITY           SKY/WX    TMP DP  RH WIND       PRES   REMARKS
WAUSAU         FAIR      14   4  64 VRB3      29.90F
6HR MIN TEMP:   6; 6HR MAX TEMP:  14;

MOSINEE        CLOUDY    12   7  79 S9        29.92F WCI   0
MARSHFIELD     FAIR      15   5  64 S8        29.90F WCI   4
6HR MIN TEMP:   8; 6HR MAX TEMP:  15;

STEVENS POINT  FAIR      15   5  66 S10       29.94F WCI   2
6HR MIN TEMP:   9; 6HR MAX TEMP:  15;

WAUPACA        FAIR      19   7  58 S9        29.99F WCI   8
6HR MIN TEMP:  14; 6HR MAX TEMP:  19;

WAUTOMA        MOCLDY    16   7  67 S7        30.00F WCI   6
6HR MIN TEMP:  12; 6HR MAX TEMP:  16;

WISC RAPIDS    FAIR      18   4  54 SW10G17   29.96F WCI   6
6HR MIN TEMP:  11; 6HR MAX TEMP:  18;

CAMP DOUGLAS   FAIR      19   7  57 S10       29.97F WCI   8
6HR MIN TEMP:  14; 6HR MAX TEMP:  20;

$$

WIZ011>013-019>022-031-037>040-048>050-171300-
NORTHEAST WISCONSIN

CITY           SKY/WX    TMP DP  RH WIND       PRES   REMARKS
ANTIGO         FAIR      12   4  68 SW10      29.88F WCI  -1
6HR MIN TEMP:   8; 6HR MAX TEMP:  12;

SHAWANO        FAIR      18   5  57 SW5       29.98R WCI  11
6HR MIN TEMP:  14; 6HR MAX TEMP:  18;

OCONTO         FAIR      17   3  54 SW6       29.99S WCI   8
6HR MIN TEMP:  13; 6HR MAX TEMP:  17;

STURGEON BAY   FAIR      18   4  54 SW12      29.99F WCI   5
6HR MIN TEMP:  14; 6HR MAX TEMP:  18;

GREEN BAY      FAIR      18   6  59 SW10      30.01S WCI   6
6HR MIN TEMP:  16; 6HR MAX TEMP:  18;

MANITOWOC      FAIR      18   5  57 SW7       30.04F WCI   9
6HR MIN TEMP:  14; 6HR MAX TEMP:  18;

APPLETON       MOCLDY    18   3  53 S13       29.99S WCI   4
CLINTONVILLE   FAIR      17   5  58 S10       29.97F WCI   5
6HR MIN TEMP:  11; 6HR MAX TEMP:  17;

OSHKOSH        FAIR      17   7  64 S9        30.01F WCI   6
6HR MIN TEMP:  15; 6HR MAX TEMP:  17;

$$

WIZ032>034-041-042-053>061-171300-
SOUTHWEST WISCONSIN

CITY           SKY/WX    TMP DP  RH WIND       PRES   REMARKS
LA CROSSE      CLOUDY    21   9  59 SE10      29.98F WCI  10
6HR MIN TEMP:  17; 6HR MAX TEMP:  21;

SPARTA         FAIR      21   9  58 S6        29.99S WCI  13
6HR MIN TEMP:  15; 6HR MAX TEMP:  21;

VIROQUA        FAIR      17  10  74 S9        29.97F WCI   6
6HR MIN TEMP:  13; 6HR MAX TEMP:  17;

BOSCOBEL       CLOUDY    20  10  65 SW5       30.05S WCI  13
6HR MIN TEMP:  10; 6HR MAX TEMP:  20;

PRAIRIE DU CHI MOCLDY    21   8  55 S5        30.05R WCI  15
6HR MIN TEMP:  13; 6HR MAX TEMP:  22;

PLATTEVILLE    FAIR      16  10  77 S8        30.04S WCI   6
6HR MIN TEMP:  11; 6HR MAX TEMP:  18;

$$

WIZ056-057-062-063-064-067-068-171300-
SOUTH CENTRAL WISCONSIN

CITY           SKY/WX    TMP DP  RH WIND       PRES   REMARKS
REEDSBURG      CLOUDY    18   7  61 SW7       30.02R WCI   9
6HR MIN TEMP:  14; 6HR MAX TEMP:  18;

BARABOO/DELLS  FAIR      19   7  59 SW6       30.01S WCI  10
6HR MIN TEMP:  16; 6HR MAX TEMP:  19;

LONE ROCK      MOCLDY    19   9  65 CALM      30.05F
6HR MIN TEMP:  11; 6HR MAX TEMP:  19;

MINERAL POINT  FAIR      19  10  68 S7        30.02S WCI  10
MADISON        MOCLDY    17   7  64 S13       30.04F WCI   4
6HR MIN TEMP:  14; 6HR MAX TEMP:  17;

MIDDLETON      FAIR      19   8  61 S9        30.04F WCI   8
6HR MIN TEMP:  15; 6HR MAX TEMP:  19;

WATERTOWN      FAIR      16   9  73 S3        30.06F
6HR MIN TEMP:  12; 6HR MAX TEMP:  16;

MONROE         FAIR      16   9  73 S13       30.03F WCI   2
JANESVILLE     FAIR      19   9  63 S8        30.08F WCI   9
$$

WIZ051-052-058>065-066-070>072-171300-
SOUTHEAST WISCONSIN

CITY           SKY/WX    TMP DP  RH WIND       PRES   REMARKS
MILWAUKEE      FAIR      19   8  62 SW9       30.09F WCI   8
6HR MIN TEMP:  18; 6HR MAX TEMP:  19;

WAUKESHA       CLEAR     12   5  73 S3        30.09F
MILWAUKEE/TIMM FAIR      18   3  53 SW6       30.09F WCI   9
RACINE         FAIR      17   7  64 SW7       30.13R WCI   8
6HR MIN TEMP:  16; 6HR MAX TEMP:  18;

BURLINGTON     FAIR      15   8  74 S6        30.10F WCI   6
6HR MIN TEMP:  15; 6HR MAX TEMP:  17;

KENOSHA        FAIR      16   7  67 SW6       30.11F WCI   7
6HR MIN TEMP:  15; 6HR MAX TEMP:  17;

FOND DU LAC    FAIR      19   4  51 S13       30.02F WCI   6
6HR MIN TEMP:  16; 6HR MAX TEMP:  19;

SHEBOYGAN      FAIR      18   7  62 S10       30.05S WCI   6
6HR MIN TEMP:  13; 6HR MAX TEMP:  18;

WEST BEND      FAIR      19   3  49 SW8       30.05F WCI   9
JUNEAU         FAIR      15   7  69 S10       30.05F WCI   3
6HR MIN TEMP:  12; 6HR MAX TEMP:  15;

$$

LSZ147-162-171300-
LAKE SUPERIOR

STATION/POSITION TIME  TEMP    WIND        PRES    WAVE
                       AIR SEA DIR/SP/G            HT/PER
                 (UTC) (F)     (DEG/KT/KT) (MB)    (FT/S)
DEVILS ISLAND    1200   20     230/ 19/ 22 1009.6F
SAXON HARBOR     1140   20     200/ 11/ 18 1009.1F
$$

LMZ867-665-643>646-171300-
LAKE MICHIGAN

STATION/POSITION TIME  TEMP    WIND        PRES    W



USA.gov is the U.S. government's official web portal to all federal, state and local government web resources and services.